Preview of NWS' New Version of Forecast
This preview is not operational and should not be used for support decisions.

Regional Weather Roundup (RWR)

Issued by National Weather Service (NWS)

                            
000
ASUS44 KJAN 201910
RWRMS 

MISSISSIPPI HOURLY WEATHER ROUNDUP
NATIONAL WEATHER SERVICE JACKSON MS
200 PM CDT FRI SEP 20 2019

NOTE: "FAIR: INDICATES FEW OR NO CLOUDS BELOW 12,000 FEET WITH NO
SIGNIFICANT WEATHER AND/OR OBSTRUCTIONS TO VISIBILITY.

MSZ001>002-007>008-010>013-018>021-025>028-034>036-202000-
NORTHWEST MISSISSIPPI
  
CITY           SKY/WX    TMP DP  RH WIND       PRES   REMARKS
BATESVILLE     FAIR      88  64  45 S7G14     30.15S                  
CLARKSDALE       N/A     88  70  55 SE13      30.14F HX  92           
CLEVELAND      MOCLDY    86  68  53 SE12G18   30.12F                  
GREENWOOD      LGT RAIN  89  63  41 SE8       30.14F HX  90           
GREENVILLE     FAIR      88  68  51 S14       30.10F HX  91           
OLIVE BRANCH   PTSUNNY   88  64  45 S10G17    30.15F                  
OXFORD         FAIR      86  59  39 SE10G17   30.17F                  
TUNICA           N/A     86  68  54 S13G18    30.14F                  
WINONA         FAIR      85  63  47 S7        30.15F                  
$$

MSZ003>006-009-014>017-022>024-029>033-037>039-202000-
NORTHEAST MISSISSIPPI
  
CITY           SKY/WX    TMP DP  RH WIND       PRES   REMARKS
ABERDEEN       FAIR      86  68  54 VRB6      30.19F                  
COLUMBUS AFB   FAIR      85  61  44 SE8       30.18F                  
CORINTH        FAIR      86  59  39 SE8       30.18F                  
GOLDN TRIANGLE FAIR      85  62  46 S9        30.19F                  
STARKVILLE     FAIR      86  61  42 SE7       30.19F                  
TUPELO         FAIR      86  60  41 SE9       30.18F                  
$$

MSZ040-058-202000-
CENTRAL MISSISSIPPI
  
CITY           SKY/WX    TMP DP  RH WIND       PRES   REMARKS
JACKSON INTL   FAIR      88  63  43 SE13G18   30.13F                  
JACKSON HAWKNS FAIR      88  65  46 SE8G17    30.14F HX  90           
MADISON        FAIR      86  63  45 E6        30.15F                  
MERIDIAN KEY   FAIR      88  60  38 SE8       30.16F                  
MERIDIAN NAS   PTSUNNY   87  59  38 SE8       30.17F                  
RAYMOND        FAIR      88  68  51 E10       30.12F HX  91           
VICKSBURG VKS  CLEAR     90  68  48 S9        30.10F HX  93           
$$

MSZ059>079-202000-
SOUTH MISSISSIPPI
  
CITY           SKY/WX    TMP DP  RH WIND       PRES   REMARKS
BROOKHAVEN     FAIR      86  66  51 N7G14     30.14F                  
HATTIESBURG    FAIR      86  62  44 VRB7      30.15F                  
LAUREL         CLEAR     86  62  44 E10       30.15F                  
MCCOMB         FAIR      88  66  48 E7G16     30.11F HX  90           
NATCHEZ        NOT AVBL                                               
PINE BELT      FAIR      86  65  49 SE7       30.15F                  
$$

MSZ080>082-202000-
COASTAL MISSISSIPPI
  
CITY           SKY/WX    TMP DP  RH WIND       PRES   REMARKS
BAY ST LOUIS   MOSUNNY   86  70  58 SE13G22   30.11F HX  90           
BILOXI         FAIR      87  70  56 SE18      30.12F HX  91           
PASCAGOULA     FAIR      88  67  49 SE10G20   30.13F HX  91           
GULFPORT       FAIR      87  68  52 SE17G26   30.12F HX  90           
$$

LAZ007>009-015>016-023>026-202000-
NORTHEAST LOUISIANA
  
CITY           SKY/WX    TMP DP  RH WIND       PRES   REMARKS
BASTROP        MOCLDY    89  69  51 SE7       30.09F HX  94           
TALLULAH/VBURG FAIR      90  68  48 SE10      30.10F HX  94           
VIDALIA        FAIR      88  71  56 SE7       30.08F HX  94           
$$